sat.trackr.live / text

‹ back to catalog

STARLINK-2461

NORAD 48428 · 2021-040A

PAYLOAD ACTIVE UNKNOWN

§ Identity

Operator
Country
US
Launch date
2021-05-09
Launch site
AFETR
Launch vehicle
Mass (kg)
RCS (m²)

Purposes: comms

External: N2YO · Heavens-Above · Gunter

§ Orbital elements

Epoch: 2026-09-19T19:20:49.080768Z

Period
94.01 min
Inclination
53.1606°
Eccentricity
0.0001080
Mean motion
15.31726093 rev/d
Perigee alt
469.9 km
Apogee alt
471.4 km
Semi-major
6,848.8 km
B*
2.0587e-4
RAAN
355.3462°
Arg perigee
81.2991°
Mean anomaly
278.8133°
Rev number
29,642

§ Raw data

STARLINK-24611 48428U 21040A   26262.80612362  .00006034  00000+0  20587-3 0  99962 48428  53.1606 355.3462 0001080  81.2991 278.8133 15.31726093296428

JSON: /api/v1/satellites/48428 · /tle

For live sub-satellite position, see the globe view (requires WebGL).

§ Visibility from observer

Set your observer location to see the next 7 days of passes ≥ 10°. The values pass through the URL so the page stays shareable.

No JS? Fill the form by hand. The geolocation button needs JavaScript.